This is the latest recevied weather packets stored in our database for station/object XW7RMR. If no packets are shown the sender has not sent any weather packets the latest 1 day(s).
| Time | Temp. | Humidity | Pressure | Rain* | Wind** | Luminosity | Snow |
|---|---|---|---|---|---|---|---|
| 1778042686 | 15° C | 83% | 1015.2 hPa | 0 mm | - | 0 W/m² | - |
| 1778042080 | 15° C | 83% | 1015.3 hPa | 0 mm | - | 0 W/m² | - |
| 1778041778 | 15° C | 82% | 1015.2 hPa | 0 mm | - | 0 W/m² | - |
| 1778041477 | 15° C | 81% | 1015.1 hPa | 0 mm | - | 0 W/m² | - |
| 1778040872 | 15.56° C | 80% | 1014.8 hPa | 0 mm | - | 0 W/m² | - |
| 1778040569 | 15.56° C | 79% | 1015 hPa | 0 mm | - | 0 W/m² | - |
| 1778040267 | 15.56° C | 79% | 1014.9 hPa | 0 mm | - | 0 W/m² | - |
| 1778039962 | 16.11° C | 77% | 1014.8 hPa | 0 mm | - | 0 W/m² | - |
| 1778039660 | 16.11° C | 77% | 1014.7 hPa | 0 mm | - | 0 W/m² | - |
| 1778039357 | 16.11° C | 76% | 1014.6 hPa | 0 mm | - | 0 W/m² | - |
| 1778039054 | 16.67° C | 76% | 1014.4 hPa | 0 mm | - | 0 W/m² | - |
| 1778038751 | 16.67° C | 75% | 1014.4 hPa | 0 mm | - | 1 W/m² | - |
| 1778038448 | 16.67° C | 75% | 1014.3 hPa | 0 mm | - | 1 W/m² | - |
| 1778038145 | 16.67° C | 74% | 1014.3 hPa | 0 mm | - | 2 W/m² | - |
| 1778037842 | 17.22° C | 74% | 1014.3 hPa | 0 mm | - | 4 W/m² | - |
| 1778037538 | 17.22° C | 74% | 1014.4 hPa | 0 mm | - | 6 W/m² | - |
| 1778037236 | 17.22° C | 73% | 1014.2 hPa | 0 mm | - | 9 W/m² | - |
| 1778036933 | 17.22° C | 72% | 1014.2 hPa | 0 mm | - | 12 W/m² | - |
| 1778036328 | 17.78° C | 71% | 1014.2 hPa | 0 mm | - | 19 W/m² | - |
| 1778036024 | 17.78° C | 71% | 1014.1 hPa | 0 mm | - | 23 W/m² | - |
| 1778034811 | 18.33° C | 69% | 1014 hPa | 0 mm | - | 44 W/m² | - |
| 1778034508 | 18.89° C | 68% | 1013.8 hPa | 0 mm | - | 48 W/m² | - |
| 1778034206 | 18.89° C | 67% | 1013.9 hPa | 0 mm | - | 60 W/m² | - |
| 1778033904 | 18.89° C | 66% | 1014 hPa | 0 mm | - | 69 W/m² | - |
| 1778033600 | 18.89° C | 67% | 1014 hPa | 0 mm | - | 83 W/m² | - |
* Rain latest hour (hover to see other rain measurements)
** Current wind speed in m/s (hover to see current wind gust speed)